Date,TemperatureHighF,TemperatureAvgF,TemperatureLowF,DewpointHighF,DewpointAvgF,DewpointLowF,HumidityHigh,HumidityAvg,HumidityLow,PressureMaxIn,PressureMinIn,WindSpeedMaxMPH,WindSpeedAvgMPH,GustSpeedMaxMPH,PrecipitationSumIn
2013-1-1,24.3,19.7,15.3,21.0,16.0,12.0,98,86,64,24.31,24.15,72,17,72,1.22
2013-1-2,24.6,17.7,14.2,15.8,5.4,-1.1,95,60,32,24.37,24.30,23,12,23,0.00
2013-1-3,29.8,22.6,14.9,7.5,2.9,-0.4,57,43,31,24.30,24.18,30,21,31,0.00
2013-1-4,32.7,29.4,24.4,21.6,13.4,-1.5,78,54,26,24.25,24.15,59,30,62,0.57
2013-1-5,30.4,25.9,23.4,19.9,16.2,11.1,79,66,54,24.29,24.14,33,20,34,0.00
2013-1-6,33.8,28.2,25.2,21.9,14.7,8.1,69,57,41,24.13,23.99,53,27,53,0.02
2013-1-7,32.9,29.1,25.5,24.6,18.9,15.4,74,66,53,24.04,23.77,54,29,65,0.93
2013-1-8,35.4,29.6,26.8,24.8,18.5,12.9,72,63,52,24.09,23.81,50,31,55,1.00
2013-1-9,40.6,36.0,32.5,25.5,23.2,20.3,72,60,46,24.04,23.78,53,33,55,0.00
2013-1-10,36.5,14.5,-1.1,26.1,10.4,-4.4,99,85,53,23.86,23.76,48,32,48,0.00
2013-1-11,-0.2,-4.2,-6.9,-3.1,-7.8,-10.7,88,84,82,24.08,23.84,39,24,41,0.00
2013-1-12,9.0,1.7,-4.7,6.8,-1.2,-8.3,91,87,84,24.12,24.01,0,0,0,0.00
2013-1-13,7.9,5.0,2.5,4.5,1.2,-2.0,89,84,74,24.16,24.10,0,0,0,0.00
2013-1-14,16.0,7.7,1.8,14.4,2.3,-5.1,94,78,69,24.12,24.00,0,0,0,0.00
2013-1-15,29.3,22.2,14.4,19.9,16.5,12.7,95,79,57,24.26,24.11,40,14,40,0.00
2013-1-16,37.8,33.4,23.0,19.4,15.8,11.5,73,48,37,24.39,24.23,43,27,44,0.00
2013-1-17,38.1,34.9,31.8,21.2,15.7,10.9,57,45,35,24.39,24.17,67,36,72,1.15
2013-1-18,39.2,36.7,33.6,16.0,9.8,4.1,45,33,23,24.20,24.08,60,37,66,3.02
2013-1-19,37.0,34.3,25.3,16.5,10.2,5.0,64,37,26,24.29,24.18,46,28,46,0.00
2013-1-20,32.7,18.7,11.5,19.6,13.8,9.3,96,83,48,24.41,24.26,40,12,41,0.00
2013-1-21,41.9,37.2,29.5,15.4,3.9,-3.6,54,26,16,24.27,24.10,48,35,51,0.06
2013-1-22,44.2,38.4,33.6,43.9,12.8,-12.5,23,10,10,24.20,24.13,46,30,46,0.06
2013-1-23,43.3,38.2,34.2,41.7,7.7,-11.9,48,25,10,24.19,24.01,35,16,43,0.00
2013-1-24,40.6,34.6,30.4,28.6,18.6,11.5,80,52,34,24.19,24.00,54,29,55,0.08
2013-1-25,38.1,34.9,31.5,29.8,24.5,19.2,83,66,55,24.18,24.02,36,19,36,0.00
2013-1-26,45.1,33.9,26.1,30.4,27.7,24.6,99,80,46,24.04,23.88,36,16,37,0.00
2013-1-27,26.6,23.2,19.2,25.9,15.3,9.5,99,72,54,23.94,23.89,29,16,29,0.00
2013-1-28,24.6,19.8,17.2,15.4,11.0,8.2,86,68,58,23.92,23.80,36,24,36,0.00
2013-1-29,19.8,4.4,-9.8,16.5,1.4,-13.9,95,87,76,24.12,23.80,45,20,46,0.01
2013-1-30,29.1,20.0,7.9,22.1,16.0,5.7,96,85,71,24.10,23.92,38,22,49,0.00
2013-1-31,33.8,26.1,7.9,26.6,21.4,5.7,99,83,69,24.16,24.08,43,21,44,0.00
2013-2-1,33.8,29.9,25.3,25.9,22.1,18.1,88,73,58,24.29,24.07,43,28,46,0.04
2013-2-2,37.6,31.2,25.3,23.4,19.7,15.3,75,63,46,24.37,24.23,40,21,41,0.00
2013-2-3,38.5,33.9,30.9,19.9,15.4,1.4,63,47,21,24.24,24.00,49,31,53,0.04
2013-2-4,33.4,31.6,30.2,23.5,21.9,19.0,74,67,60,24.04,23.94,58,38,61,0.01
2013-2-5,38.7,33.6,30.6,30.6,22.8,19.8,81,64,56,24.06,23.86,53,23,55,0.01
2013-2-6,33.4,28.7,25.9,20.7,16.3,13.3,72,59,49,24.12,23.87,45,30,55,0.02
2013-2-7,34.3,27.8,21.0,16.7,13.8,12.2,71,56,40,24.12,24.01,36,18,36,0.00
2013-2-8,37.9,29.5,24.6,19.8,16.3,13.3,69,58,46,24.06,24.01,17,7,17,0.00
2013-2-9,30.0,23.3,19.2,22.5,16.4,11.3,98,76,48,24.04,23.92,40,16,43,0.07
2013-2-10,19.2,14.4,9.5,18.5,13.1,7.7,97,94,92,24.17,24.06,18,4,19,0.07
2013-2-11,26.1,16.2,8.2,25.0,13.6,6.1,99,90,79,24.12,24.02,10,1,12,0.00
2013-2-12,29.8,26.2,21.0,25.7,20.5,16.7,93,79,71,24.12,23.98,69,24,72,2.74
2013-2-13,34.5,29.3,15.8,25.0,21.1,14.4,97,72,48,24.24,23.98,59,32,69,3.02
2013-2-14,24.6,18.6,12.7,22.8,15.6,11.1,96,88,72,24.35,24.24,23,10,24,0.00
2013-2-15,36.5,29.1,21.2,25.3,19.2,14.2,77,66,55,24.37,24.24,41,21,41,0.00
2013-2-16,42.8,36.7,30.6,26.1,23.9,21.0,83,60,46,24.25,23.84,44,25,44,0.00
2013-2-17,32.0,23.7,18.5,27.1,21.3,14.5,99,91,58,24.08,23.82,40,20,43,0.00
2013-2-18,24.8,18.2,14.2,23.2,15.6,9.5,97,90,66,24.12,23.96,15,1,15,0.00
2013-2-19,25.3,19.7,15.6,19.2,13.6,10.4,96,77,65,23.95,23.81,44,23,46,0.00
2013-2-20,30.2,20.7,14.5,26.2,18.9,13.5,97,93,82,23.95,23.88,17,4,17,0.00
2013-2-21,24.3,19.9,15.3,15.6,11.0,7.5,85,68,56,24.00,23.93,34,19,36,0.00
2013-2-22,30.7,25.0,19.8,19.4,15.2,10.9,81,66,57,23.97,23.74,43,29,46,0.00
2013-2-23,30.6,23.5,18.9,23.0,16.1,9.9,97,74,51,24.11,23.73,43,24,43,0.00
2013-2-24,25.9,21.7,16.0,18.5,13.0,8.6,97,69,57,24.17,24.05,41,22,42,0.00
2013-2-25,29.5,25.0,21.2,18.5,14.5,12.0,69,64,58,24.06,23.91,44,26,44,0.00
2013-2-26,27.5,22.5,18.7,21.9,14.7,9.1,92,72,63,24.23,23.96,40,20,42,0.00
2013-2-27,31.3,23.8,17.4,15.4,11.0,7.7,71,58,44,24.26,24.21,39,21,41,0.00
2013-2-28,34.3,29.2,23.5,26.1,18.7,13.8,85,65,49,24.32,24.21,45,24,45,0.00
2013-3-1,41.4,38.0,30.4,30.9,29.0,25.0,80,70,62,24.35,24.26,54,32,64,0.31
2013-3-2,47.7,40.7,36.3,28.8,25.6,20.8,69,55,35,24.34,24.01,58,24,67,0.24
2013-3-3,37.6,26.7,11.7,30.4,18.7,2.8,96,74,36,24.06,23.78,78,39,82,29.62
2013-3-4,23.4,12.3,7.3,23.2,10.8,5.2,99,94,91,24.29,24.06,59,20,65,0.00
2013-3-5,25.5,16.4,7.2,21.0,13.2,5.2,97,88,64,24.22,24.05,27,4,29,0.00
2013-3-6,33.4,28.1,21.4,30.0,20.5,11.7,99,74,53,24.04,23.81,40,24,45,0.00
2013-3-7,34.0,30.0,25.9,28.9,18.6,12.0,95,64,47,24.13,23.90,31,13,34,0.00
2013-3-8,44.2,30.3,23.9,24.4,18.5,11.8,87,63,31,24.12,24.00,23,9,23,0.00
2013-3-9,39.0,28.8,22.5,21.7,16.0,12.6,86,59,39,24.29,24.06,29,12,34,0.00
2013-3-10,39.0,31.8,25.7,23.9,17.7,11.7,76,57,35,24.28,24.13,44,22,48,0.00
2013-3-11,29.5,22.4,15.3,22.5,18.2,13.8,97,85,65,24.30,24.11,44,19,48,0.00
2013-3-12,41.5,25.4,14.0,28.9,19.4,12.0,95,79,59,24.30,24.13,43,18,47,0.00
2013-3-13,49.6,42.8,38.5,30.4,27.9,23.4,71,56,37,24.29,24.14,49,28,53,0.00
2013-3-14,51.1,46.1,41.9,28.2,25.3,21.0,55,44,33,24.29,24.11,33,17,34,0.00
2013-3-15,47.1,41.0,26.8,28.9,25.2,21.6,92,54,39,24.16,24.08,42,23,45,0.00
2013-3-16,42.8,35.5,28.2,28.2,23.8,18.5,87,63,43,24.15,23.80,36,18,39,0.00
2013-3-17,34.5,19.3,5.0,26.1,12.7,2.5,95,77,50,24.01,23.68,47,25,53,0.01
2013-3-18,28.2,19.7,5.4,15.8,12.0,2.8,95,73,48,24.04,23.89,50,24,53,0.00
2013-3-19,35.6,23.4,10.9,18.9,7.4,-5.6,97,57,18,24.26,24.04,37,15,38,0.00
2013-3-20,46.8,34.0,24.8,31.6,18.9,6.8,97,55,39,24.13,23.72,43,31,49,0.00
2013-3-21,31.5,25.4,19.8,17.6,10.1,1.6,67,53,32,23.98,23.77,53,31,54,0.41
2013-3-22,20.5,14.3,6.4,15.1,11.3,4.1,95,88,63,24.19,23.97,39,20,40,0.00
2013-3-23,25.5,13.4,5.0,20.8,6.1,-0.2,90,74,44,24.25,24.19,27,6,28,0.00
2013-3-24,30.2,19.2,10.9,9.3,3.4,-1.1,76,51,27,24.29,24.22,17,7,17,0.00
2013-3-25,38.3,25.5,14.0,10.9,5.0,0.1,64,44,23,24.23,24.09,27,15,27,0.00
2013-3-26,48.4,35.3,26.8,23.5,16.2,3.9,73,47,25,24.10,24.06,15,7,16,0.00
2013-3-27,48.9,38.2,28.6,27.5,19.6,14.9,63,48,31,24.16,24.09,21,11,25,0.00
2013-3-28,52.0,41.3,34.0,33.3,27.2,21.0,80,59,30,24.20,24.15,29,11,30,0.00
2013-3-29,46.6,40.6,36.5,32.5,27.9,22.1,78,62,39,24.27,24.19,41,17,44,0.00
2013-3-30,50.5,40.4,33.8,28.0,23.5,14.5,75,53,24,24.33,24.19,30,18,36,0.00
2013-3-31,45.7,39.7,35.2,26.8,23.7,21.2,59,53,41,24.28,24.17,36,16,40,0.00
2013-4-1,50.7,40.2,30.6,26.1,21.6,17.2,71,49,30,24.22,24.17,27,14,27,0.00
2013-4-2,59.0,45.2,33.3,29.5,21.5,16.7,55,40,21,24.18,24.11,36,14,36,0.00
2013-4-3,51.4,43.8,40.1,34.3,30.3,27.0,74,59,44,24.25,24.11,42,18,44,0.00
2013-4-4,56.8,45.3,33.8,38.3,30.2,19.8,82,58,24,24.19,23.97,36,13,41,0.00
2013-4-5,50.7,43.4,38.1,40.3,29.7,18.5,91,60,29,24.02,23.90,50,30,52,0.02
2013-4-6,46.2,39.6,34.5,34.5,26.8,22.8,89,60,42,24.04,23.94,43,23,43,0.00
2013-4-7,38.3,31.2,18.9,34.5,26.1,17.8,99,83,61,23.99,23.80,46,20,47,0.07
2013-4-8,18.5,12.3,9.0,17.8,10.4,6.8,97,92,87,24.29,23.96,22,9,23,0.00
2013-4-9,27.7,16.7,8.6,23.2,12.2,6.4,94,83,64,24.35,24.25,18,1,21,0.00
2013-4-10,44.8,31.1,16.3,34.0,23.2,12.2,86,73,58,24.26,23.91,46,20,49,0.00
2013-4-11,43.2,35.5,26.8,31.6,24.7,16.9,99,67,39,24.10,23.91,40,23,48,0.00
2013-4-12,41.9,32.2,23.0,34.2,22.8,15.1,99,73,35,24.16,23.81,29,12,33,0.01
2013-4-13,40.5,32.4,23.4,31.8,17.3,0.7,99,57,26,23.82,23.63,46,26,51,0.01
2013-4-14,23.4,17.4,13.3,20.5,15.9,11.8,97,94,71,24.02,23.81,38,24,39,0.00
2013-4-15,23.4,15.8,10.4,20.7,14.0,8.6,95,92,86,24.18,24.00,25,10,27,0.00
2013-4-16,25.5,16.8,13.3,23.7,15.3,11.8,96,94,90,24.30,24.14,15,2,16,0.00
2013-4-17,32.9,17.7,11.7,30.9,14.8,6.3,96,89,53,24.31,24.27,0,0,0,0.01
2013-4-18,38.1,29.6,19.2,23.7,16.1,6.1,64,57,51,24.27,24.19,33,12,33,0.00
2013-4-19,39.6,34.6,28.9,30.4,26.5,20.5,83,72,62,24.19,23.96,37,26,47,0.00
2013-4-20,45.5,37.7,24.8,32.0,27.9,21.4,99,69,41,24.14,23.99,47,32,53,0.01
2013-4-21,24.6,18.2,14.0,24.4,16.5,12.6,99,93,85,24.29,24.12,34,8,35,0.00
2013-4-22,27.7,19.2,12.7,23.9,14.3,-0.9,94,82,38,24.41,24.28,1,0,1,0.00
2013-4-23,35.4,26.4,17.1,22.5,14.0,3.6,76,60,39,24.34,24.22,29,8,30,0.00
2013-4-24,45.3,34.7,23.5,28.4,21.0,13.3,99,63,30,24.29,24.05,47,21,49,0.01
2013-4-25,53.6,44.0,36.3,25.2,19.4,13.3,52,38,22,24.18,24.01,39,25,45,0.01
2013-4-26,60.1,49.9,41.2,28.2,24.2,19.2,51,37,21,24.28,24.18,40,22,43,0.00
2013-4-27,59.7,51.7,44.6,31.1,21.9,9.5,59,33,14,24.26,24.07,59,34,65,0.50
2013-4-28,52.7,45.3,40.5,32.4,26.6,18.3,69,49,27,24.15,23.96,49,29,59,0.30
2013-4-29,46.4,38.5,23.9,30.0,20.1,6.3,99,49,22,23.97,23.72,68,37,72,5.49
2013-4-30,26.1,22.4,19.0,25.9,21.6,17.8,99,97,93,24.31,23.93,37,15,40,0.02
2013-5-1,37.8,28.1,17.8,19.2,15.1,9.3,96,61,34,24.59,24.31,26,10,30,0.00
2013-5-2,55.2,41.7,27.1,55.0,12.5,0.5,60,34,11,24.59,24.38,29,16,34,0.00
2013-5-3,45.7,38.6,33.8,36.3,28.2,10.9,99,73,24,24.38,24.33,37,19,37,0.28
2013-5-4,47.7,38.6,32.5,42.6,35.7,32.4,99,90,60,24.41,24.35,27,16,29,0.46
2013-5-5,62.1,46.8,36.1,36.3,31.9,28.4,84,59,29,24.34,24.19,29,13,32,0.00
2013-5-6,70.3,54.1,43.2,34.9,28.2,13.1,54,39,12,24.21,24.10,26,14,27,0.00
2013-5-7,61.2,52.6,45.9,38.7,31.6,25.0,62,45,31,24.27,24.08,54,27,57,0.48
2013-5-8,66.0,51.3,37.0,41.9,34.3,27.7,79,55,26,24.31,24.27,24,10,25,0.00
2013-5-9,66.7,57.6,47.8,42.3,34.1,21.7,70,43,19,24.33,24.28,28,12,32,0.00
2013-5-10,57.2,49.3,38.3,37.0,30.3,21.6,86,50,28,24.53,24.32,59,19,59,0.30
2013-5-11,71.4,55.4,39.9,36.3,29.5,17.6,58,39,14,24.49,24.30,33,17,33,0.00
2013-5-12,74.7,65.0,57.9,40.5,35.5,25.0,44,34,19,24.32,24.19,35,19,35,0.00
2013-5-13,77.4,64.0,48.9,46.0,38.6,16.5,67,42,11,24.23,23.98,49,21,55,0.00
2013-5-14,60.4,49.4,41.2,59.9,21.3,-1.7,61,35,10,24.20,24.10,42,21,56,0.00
2013-5-15,61.0,51.4,43.2,33.8,21.7,10.2,57,31,18,24.20,24.13,32,7,32,0.00
2013-5-16,58.3,48.6,42.4,43.9,37.6,32.2,89,67,44,24.13,24.05,25,13,30,0.05
2013-5-17,47.3,42.8,36.7,44.8,40.7,34.7,99,92,79,24.12,24.08,20,10,21,0.20
2013-5-18,52.3,43.6,39.0,46.0,41.4,21.9,99,92,43,24.17,24.11,27,13,27,0.18
2013-5-19,43.5,41.6,39.2,43.3,41.4,39.0,99,99,99,24.29,24.16,38,24,43,0.35
2013-5-20,52.3,44.8,41.4,51.3,42.7,37.6,99,93,70,24.35,24.27,30,14,34,0.43
2013-5-21,62.2,50.1,39.0,42.1,33.1,17.6,99,59,24,24.27,24.02,41,26,50,0.01
2013-5-22,50.5,44.8,39.2,45.1,38.7,31.8,99,80,55,24.04,23.93,56,41,68,0.02
2013-5-23,45.1,40.4,34.3,43.7,38.9,34.2,99,94,72,24.10,23.97,46,20,48,0.15
2013-5-24,53.6,42.4,32.0,36.3,31.3,21.9,99,69,30,24.16,24.01,44,17,47,0.24
2013-5-25,59.2,47.5,37.6,43.2,35.5,30.4,81,64,41,24.19,24.11,31,9,35,0.01
2013-5-26,59.5,49.2,40.8,48.4,40.4,31.1,99,73,46,24.18,24.09,38,10,44,0.14
2013-5-27,55.4,45.4,38.1,45.9,40.7,36.3,99,85,60,24.10,24.01,27,11,28,0.14
2013-5-28,53.6,45.6,42.3,45.9,41.8,36.1,99,87,62,24.01,23.96,19,9,20,0.04
2013-5-29,51.3,46.1,43.7,46.4,42.6,39.7,99,88,73,23.99,23.92,19,8,21,0.05
2013-5-30,43.9,41.2,38.5,43.5,40.2,36.3,99,96,81,24.14,23.94,38,20,38,0.30
2013-5-31,41.2,38.1,35.6,41.0,37.9,35.4,99,99,90,24.42,24.13,60,26,60,0.83
2013-6-1,58.1,48.2,37.8,45.3,36.9,28.0,99,68,35,24.41,24.22,27,10,27,0.09
2013-6-2,54.1,47.0,40.1,47.3,42.3,38.8,99,84,65,24.22,24.03,33,14,34,0.31
2013-6-3,40.5,36.0,32.4,40.3,33.6,25.7,99,91,73,24.28,23.99,60,28,62,1.48
2013-6-4,48.9,37.5,32.2,42.3,32.3,26.2,99,81,65,24.37,24.27,26,12,27,0.20
2013-6-5,69.8,51.5,36.1,43.3,35.7,21.9,99,62,24,24.35,24.21,21,13,23,0.01
2013-6-6,75.7,60.1,45.9,50.7,43.2,35.8,91,55,30,24.32,24.21,23,9,23,0.00
2013-6-7,67.8,59.9,52.3,48.7,43.1,36.7,81,56,36,24.22,24.02,44,22,46,0.00
2013-6-8,66.9,57.5,45.9,45.3,37.9,26.2,97,52,22,24.18,24.09,46,16,46,0.02
2013-6-9,71.6,61.1,52.9,60.8,30.5,3.9,49,32,10,24.19,24.03,37,21,43,0.00
2013-6-10,64.8,57.2,46.8,47.3,35.9,25.3,72,46,33,24.12,24.05,27,9,27,0.00
2013-6-11,56.7,49.4,43.5,48.6,45.2,41.7,99,86,63,24.24,24.02,28,15,29,0.00
2013-6-12,67.5,53.3,44.8,55.8,50.1,37.4,99,90,50,24.25,24.11,47,18,49,0.11
2013-6-13,52.0,45.6,41.4,51.6,44.3,36.7,99,95,76,24.20,24.13,34,15,34,0.22
2013-6-14,53.1,46.5,41.0,37.4,33.3,26.8,79,61,38,24.24,24.14,41,22,43,0.00
2013-6-15,66.2,54.1,43.0,65.5,27.5,6.3,65,39,10,24.27,24.21,37,19,40,0.00
2013-6-16,61.2,54.9,50.9,48.6,39.4,27.3,76,57,36,24.35,24.27,25,13,27,0.00
2013-6-17,72.3,60.1,49.5,52.2,46.4,42.3,82,62,34,24.34,24.21,30,16,31,0.00
2013-6-18,76.8,62.8,52.0,59.4,47.8,28.9,99,61,22,24.20,24.01,45,23,45,0.01
2013-6-19,58.3,50.2,43.0,55.2,48.3,38.7,99,93,58,24.04,23.88,57,19,57,0.41
2013-6-20,54.5,45.3,39.7,41.7,37.7,35.4,89,75,56,24.23,23.94,38,21,39,0.41
2013-6-21,59.0,49.6,41.7,44.8,36.7,31.8,82,61,46,24.24,24.19,17,7,19,0.02
2013-6-22,59.2,47.1,40.3,47.5,42.2,36.0,99,84,52,24.23,24.16,20,9,22,0.09
2013-6-23,65.7,55.6,44.6,45.0,38.7,31.3,92,56,28,24.19,24.02,27,10,27,0.00
2013-6-24,70.5,58.5,52.9,56.5,44.2,34.3,83,60,37,24.03,23.91,43,12,46,0.01
2013-6-25,68.4,56.7,50.0,48.9,44.3,39.2,89,65,38,24.13,23.96,45,17,46,0.01
2013-6-26,65.3,57.2,51.4,48.6,44.4,40.6,79,63,41,24.32,24.13,34,18,35,0.01
2013-6-27,75.6,63.2,54.5,49.6,43.7,38.7,69,51,29,24.47,24.32,31,20,33,0.00
2013-6-28,81.3,69.5,61.3,57.2,47.9,40.6,75,47,25,24.50,24.43,21,9,22,0.00
2013-6-29,80.2,67.9,60.3,59.9,53.0,47.1,76,60,33,24.45,24.34,40,15,40,0.00
2013-6-30,79.2,67.7,56.7,59.9,54.0,51.1,84,63,40,24.42,24.32,30,14,38,0.01
2013-7-1,80.8,72.3,62.4,64.4,55.3,44.4,75,56,35,24.47,24.41,18,8,21,0.00
2013-7-2,89.8,76.2,63.5,59.9,48.4,31.1,65,42,13,24.42,24.27,22,12,23,0.00
2013-7-3,84.7,76.6,68.2,61.7,49.1,39.9,80,41,23,24.29,24.21,27,16,29,0.00
2013-7-4,81.3,70.7,59.2,63.7,48.3,30.7,99,53,17,24.23,24.10,21,11,24,0.00
2013-7-5,69.4,61.9,50.0,52.5,45.9,36.7,94,59,30,24.16,24.07,32,13,33,0.00
2013-7-6,67.3,56.2,46.8,53.1,48.9,45.9,99,78,47,24.20,24.12,26,11,27,0.00
2013-7-7,75.9,61.4,47.1,60.1,52.4,46.2,99,76,36,24.22,24.15,24,11,27,0.01
2013-7-8,72.3,59.3,52.2,57.2,51.0,36.3,99,77,28,24.33,24.18,48,15,59,0.05
2013-7-9,74.5,63.1,47.7,49.1,42.5,28.4,99,52,22,24.40,24.33,18,9,19,0.05
2013-7-10,87.4,71.7,54.5,87.4,48.5,16.9,79,34,10,24.35,24.14,26,13,27,0.00
2013-7-11,78.4,70.6,56.7,49.1,36.4,24.6,59,30,16,24.15,24.09,45,18,45,0.00
2013-7-12,75.6,64.3,54.1,44.2,39.0,28.4,60,41,20,24.18,24.13,50,15,54,0.00
2013-7-13,66.7,59.4,48.9,44.6,41.1,38.3,74,52,36,24.37,24.17,32,15,32,0.00
2013-7-14,78.3,64.4,51.8,78.3,38.8,14.2,70,42,10,24.38,24.27,40,20,40,0.00
2013-7-15,84.9,67.4,50.0,84.9,55.3,19.0,90,47,10,24.37,24.17,49,23,50,0.01
2013-7-16,70.7,54.8,41.4,50.0,45.7,41.2,99,74,45,24.42,24.35,27,15,30,0.01
2013-7-17,82.9,64.2,53.1,58.1,53.5,41.7,99,72,28,24.38,24.28,36,16,51,0.02
2013-7-18,80.8,69.3,59.0,53.6,39.1,24.8,82,36,13,24.39,24.34,22,13,27,0.02
2013-7-19,81.5,70.3,59.7,81.5,45.9,15.6,50,25,10,24.37,24.27,30,13,36,0.00
2013-7-20,82.4,69.8,51.4,82.4,42.1,15.1,85,31,10,24.30,24.14,24,8,26,0.00
2013-7-21,82.9,72.2,62.4,78.1,33.9,12.9,40,18,10,24.20,24.13,35,12,36,0.00
2013-7-22,82.4,70.1,59.2,82.4,47.4,10.9,55,22,10,24.25,24.15,32,17,36,0.00
2013-7-23,81.5,69.1,59.0,47.3,36.4,23.4,53,32,12,24.36,24.24,29,11,30,0.00
2013-7-24,83.8,70.9,58.8,82.9,42.7,19.8,72,40,10,24.35,24.25,40,16,43,0.00
2013-7-25,77.5,65.4,52.7,55.6,51.1,43.9,97,64,31,24.41,24.33,25,12,28,0.00
2013-7-26,86.2,69.1,53.6,86.2,57.5,18.0,87,42,10,24.40,24.27,32,17,34,0.00
2013-7-27,81.9,69.7,57.0,81.9,59.4,25.3,88,31,22,24.29,24.13,33,17,33,0.00
2013-7-28,68.5,58.3,49.6,54.3,49.7,42.8,99,76,40,24.19,24.13,25,15,28,0.00
2013-7-29,61.5,50.8,43.5,56.5,48.1,43.3,99,91,71,24.29,24.16,36,15,36,0.18
2013-7-30,66.2,55.3,45.7,52.3,48.8,45.5,99,80,51,24.43,24.28,21,11,22,0.00
2013-7-31,79.2,64.7,53.2,51.8,43.1,24.3,87,52,14,24.43,24.33,24,13,25,0.00
2013-8-1,65.5,56.1,50.7,54.5,49.6,42.4,99,81,43,24.34,24.16,40,15,41,0.35
2013-8-2,51.1,50.7,50.4,50.7,50.4,50.0,99,99,99,24.22,24.18,16,11,17,0.40
2013-8-20,74.5,69.2,64.9,26.1,23.5,19.8,21,18,14,24.28,24.22,20,14,27,0.00
2013-8-21,72.3,64.0,55.4,37.2,27.8,16.2,40,26,17,24.37,24.27,26,12,32,0.00
2013-8-22,82.8,68.7,57.6,47.5,40.0,30.4,54,37,15,24.33,24.21,32,16,35,0.00
2013-8-23,80.4,67.3,60.4,49.3,42.2,23.2,62,43,12,24.21,24.09,43,19,43,0.00
2013-8-24,81.0,67.5,57.2,48.7,38.8,17.6,69,40,10,24.20,24.14,45,13,53,0.00
2013-8-25,84.6,66.9,55.9,84.6,44.1,19.8,59,37,10,24.27,24.17,38,17,42,0.00
2013-8-26,81.7,67.2,56.5,80.8,39.7,18.7,63,39,10,24.28,24.19,42,14,44,0.00
2013-8-27,83.8,69.3,57.6,83.8,39.5,18.7,70,37,10,24.29,24.22,38,13,40,0.00
2013-8-28,81.3,67.4,57.7,56.1,45.2,36.3,86,47,22,24.29,24.21,44,16,54,0.00
2013-8-29,84.4,69.1,57.9,84.2,44.6,20.3,78,47,10,24.34,24.24,27,15,35,0.00
2013-8-30,79.7,68.3,58.5,50.4,39.1,17.2,70,40,10,24.32,24.25,34,17,40,0.00
2013-8-31,71.4,62.9,54.7,39.7,31.1,13.8,51,33,11,24.37,24.31,21,9,29,0.00
2013-9-1,85.6,69.2,54.0,85.6,47.5,14.0,48,21,10,24.31,24.22,32,17,35,0.00
2013-9-2,85.6,73.3,64.9,85.6,41.2,16.9,32,17,10,24.26,24.18,36,19,37,0.00
2013-9-3,81.9,70.8,63.3,42.6,35.3,28.8,45,28,16,24.37,24.26,28,11,28,0.00
2013-9-4,84.0,70.8,61.7,50.9,44.8,34.2,60,41,18,26.40,24.33,21,8,30,0.00
2013-9-5,82.2,70.2,61.0,55.9,48.0,43.2,83,47,26,24.35,24.25,40,16,42,0.00
2013-9-6,79.0,64.0,55.8,59.2,53.1,44.6,99,71,34,24.32,24.21,69,17,69,0.00
2013-9-7,62.4,57.2,54.3,60.1,56.4,54.0,99,97,78,24.35,24.22,33,12,45,0.00
2013-9-8,67.5,55.4,49.1,56.5,50.7,40.8,99,85,55,24.29,24.14,46,11,46,0.00
2013-9-9,64.4,54.7,48.9,52.9,45.0,40.5,96,70,45,24.29,24.16,38,17,38,0.00
2013-9-10,72.7,62.0,52.0,48.7,41.6,31.1,74,50,22,24.37,24.28,21,9,23,0.00
2013-9-11,72.0,64.0,57.2,49.6,41.2,31.3,59,44,27,24.48,24.37,32,13,34,0.00
2013-9-12,79.2,63.6,53.2,44.6,40.7,30.6,61,45,20,24.47,24.28,32,19,37,0.00
2013-9-13,77.7,65.3,55.4,47.1,42.4,29.3,68,45,19,24.28,24.11,26,14,29,0.00
2013-9-14,64.4,57.2,50.7,49.6,46.7,43.3,81,68,51,24.33,24.15,30,18,34,0.00
2013-9-15,70.0,59.1,49.8,52.3,47.1,43.3,81,66,45,24.33,24.17,46,28,46,0.00
2013-9-16,78.3,64.5,52.9,52.3,44.8,32.4,93,55,23,24.18,24.04,40,22,46,0.00
2013-9-17,62.1,54.8,48.0,52.5,44.4,37.4,99,71,42,24.11,23.92,34,14,36,0.00
2013-9-18,51.8,44.4,32.2,46.4,39.2,32.0,99,83,52,24.22,23.91,41,20,44,0.00
2013-9-19,59.2,45.4,32.0,40.1,34.3,29.3,99,69,35,24.33,24.22,17,10,21,0.00
2013-9-20,69.3,54.3,41.4,69.3,33.1,8.8,70,38,10,24.25,24.02,32,20,36,0.00
2013-9-21,75.9,61.8,52.7,75.9,21.1,12.2,34,20,10,24.03,23.88,37,21,42,0.00
2013-9-22,60.3,52.5,45.3,42.6,34.4,23.9,80,52,30,23.94,23.88,33,13,35,0.00
2013-9-23,52.7,46.2,40.8,38.1,30.5,21.9,90,56,31,24.12,23.93,51,23,51,0.00
2013-9-24,49.1,43.3,37.6,43.9,35.3,28.9,99,75,50,24.12,23.96,40,17,41,0.00
2013-9-25,39.9,37.0,30.6,39.2,35.8,21.0,99,95,64,23.98,23.91,44,14,50,0.00
2013-9-26,35.4,31.6,29.1,35.2,26.5,14.2,99,83,49,24.15,23.97,41,6,46,0.00
2013-9-27,42.4,35.8,28.6,32.4,28.8,23.9,99,76,56,24.15,24.05,35,11,36,0.00
2013-9-28,50.9,43.9,36.9,37.8,34.1,30.6,80,69,54,24.07,23.94,51,23,61,0.00
2013-9-29,53.4,45.0,38.7,38.3,32.0,26.6,93,61,47,23.96,23.74,66,40,66,0.00
2013-9-30,46.8,42.3,37.8,40.6,29.2,21.2,91,61,38,24.04,23.71,62,38,67,0.00
2013-10-1,46.4,40.3,34.3,28.6,25.7,21.7,71,56,40,24.15,24.02,49,23,49,0.00
2013-10-2,50.7,38.7,32.2,26.6,22.4,14.0,75,53,23,24.23,24.13,28,15,29,0.00
2013-10-3,36.0,28.4,25.0,30.9,27.4,24.8,99,96,66,24.43,24.13,27,11,27,0.00
2013-10-4,37.9,31.2,26.1,36.1,26.1,21.2,99,83,57,24.51,24.41,23,3,26,0.00
2013-10-5,49.3,40.1,30.2,29.1,24.6,17.8,71,54,42,24.40,24.35,35,18,41,0.00
2013-10-6,62.2,52.1,45.9,29.8,23.4,13.5,49,34,15,24.37,24.21,37,20,40,0.00
2013-10-7,63.7,52.8,43.9,27.7,22.0,14.2,52,31,15,24.20,23.96,30,20,32,0.00
2013-10-8,45.0,39.7,34.7,29.1,23.6,19.0,63,53,38,24.12,23.94,49,20,49,0.00
2013-10-9,48.6,35.4,27.1,37.8,31.0,25.0,99,85,61,24.20,24.02,28,11,34,0.00
2013-10-10,50.2,40.3,34.2,34.3,30.3,20.3,93,70,36,24.02,23.94,29,15,30,0.00
2013-10-11,46.9,35.7,30.0,34.5,29.0,21.9,99,77,53,24.17,24.02,30,11,30,0.00
2013-10-12,41.9,34.3,29.8,33.1,27.4,21.6,99,77,50,24.25,24.17,15,7,17,0.00
2013-10-13,37.6,33.6,30.4,35.2,31.4,28.8,99,92,76,24.32,24.24,23,11,25,0.00
2013-10-14,36.0,30.7,28.4,35.8,30.0,28.2,99,97,84,24.47,24.31,18,10,19,0.00
2013-10-15,46.6,34.5,25.3,31.1,25.1,18.9,97,72,33,24.45,24.22,30,15,30,0.00
2013-10-16,40.3,32.6,28.0,31.3,24.5,18.0,99,75,45,24.29,24.17,36,14,36,0.00
2013-10-17,32.5,28.8,26.1,32.4,28.6,25.9,99,99,99,24.32,24.23,35,11,35,0.00
2013-10-18,45.0,36.1,26.8,29.5,26.3,22.1,99,70,49,24.32,24.17,27,14,27,0.00
2013-10-19,50.9,42.1,35.4,34.0,27.9,25.3,94,58,40,24.20,24.09,34,18,35,0.00
2013-10-20,49.1,39.6,32.2,37.0,32.4,28.9,99,77,52,24.24,24.21,30,11,30,0.00
2013-10-21,53.6,45.9,39.2,37.0,32.5,28.8,73,60,47,24.29,24.23,28,14,34,0.00
2013-10-22,59.4,50.1,41.5,37.8,30.9,23.4,72,49,25,24.29,24.27,17,10,21,0.00
2013-10-23,56.5,44.8,40.1,37.0,33.4,28.8,76,64,47,24.35,24.29,20,8,21,0.00
2013-10-24,55.2,43.6,32.9,38.8,34.2,28.0,99,72,46,24.35,24.25,19,13,19,0.00
2013-10-25,57.2,50.3,45.3,33.1,26.9,18.7,52,40,26,24.40,24.26,30,12,30,0.00
2013-10-26,57.9,49.6,41.0,57.9,22.1,-2.6,57,28,10,24.39,24.16,40,21,43,0.00
2013-10-27,51.1,39.0,18.0,28.4,19.3,4.5,99,53,16,24.26,24.05,49,27,50,0.00
2013-10-28,17.8,12.3,10.8,17.2,11.1,9.3,98,95,94,24.28,24.17,17,3,18,0.00
2013-10-29,25.3,17.6,10.8,25.2,16.8,9.3,99,97,94,24.16,23.96,0,0,0,0.00
2013-10-30,37.4,30.1,22.5,26.6,23.3,21.4,99,77,54,24.02,23.94,33,8,33,0.00
2013-10-31,39.0,34.5,32.0,27.9,25.4,22.3,77,69,63,24.12,23.96,50,25,52,0.00
2013-11-1,40.6,35.2,30.9,28.0,24.5,22.1,74,65,53,24.24,24.12,38,23,38,0.00
2013-11-2,50.4,37.2,30.9,34.5,26.8,22.8,98,68,38,24.21,23.78,46,24,48,0.00
2013-11-3,32.2,24.7,17.8,25.7,18.2,14.0,99,78,57,24.03,23.80,47,26,49,0.00
2013-11-4,28.8,19.3,16.2,28.6,18.4,15.4,99,96,87,24.12,24.02,18,3,20,0.00
2013-11-5,29.7,23.5,17.1,23.9,14.5,9.0,95,69,48,24.12,24.07,43,20,43,0.00
2013-11-6,33.4,30.1,27.0,26.2,20.9,16.2,87,69,56,24.34,24.10,40,26,44,0.00
2013-11-7,43.5,34.1,27.5,35.4,27.6,18.7,99,77,64,24.33,23.83,52,22,57,0.05
2013-11-8,35.4,32.2,29.1,25.5,23.1,18.3,78,69,61,24.16,23.86,52,34,54,0.18
2013-11-9,38.3,32.4,27.0,25.3,18.4,10.6,69,57,32,24.26,24.16,34,17,34,0.00
2013-11-10,37.4,28.2,18.7,32.4,23.8,18.5,99,85,61,24.29,24.21,17,6,19,0.00
2013-11-11,43.9,31.7,18.9,35.4,29.3,18.7,99,91,72,24.47,24.30,22,6,23,0.00
2013-11-12,54.7,44.2,33.6,32.4,25.8,17.6,94,53,24,24.46,24.32,36,21,36,0.00
2013-11-13,45.0,39.6,33.4,33.6,26.9,20.8,72,61,42,24.33,24.18,55,33,64,0.63
2013-11-14,35.1,33.2,30.4,23.5,21.4,19.2,68,62,53,24.22,23.83,43,26,51,0.00
2013-11-15,35.8,30.2,27.7,20.8,18.2,15.3,71,61,50,23.84,23.51,52,29,55,0.00
2013-11-16,31.8,23.9,12.9,25.5,19.5,11.8,99,84,56,23.70,23.46,42,15,55,0.00
2013-11-17,30.6,25.3,19.2,21.0,16.2,13.3,99,68,54,24.03,23.69,46,24,49,0.00
2013-11-18,43.3,35.8,28.0,17.2,14.0,8.6,60,42,26,24.04,23.90,48,18,50,0.00
2013-11-19,46.9,36.1,3.2,28.4,20.2,0.7,99,55,36,23.90,23.76,45,21,45,0.00
2013-11-20,10.9,0.3,-4.2,9.3,-3.6,-7.8,95,83,61,24.27,23.85,27,10,28,0.00
2013-11-21,20.3,12.4,1.4,7.7,-2.9,-11.4,76,52,24,24.43,24.26,37,14,37,0.00
2013-11-22,30.4,23.3,17.6,8.4,1.9,-6.0,50,39,31,24.54,24.41,31,10,34,0.00
2013-11-23,36.1,27.4,19.4,13.6,8.1,4.3,54,44,34,24.51,24.23,27,18,27,0.00
2013-11-24,44.8,34.8,23.0,21.7,10.5,1.6,93,40,19,24.31,24.18,30,16,35,0.00
2013-11-25,44.6,34.6,23.2,21.6,19.1,16.0,92,55,33,24.41,24.30,18,8,20,0.00
2013-11-26,47.1,38.5,30.6,22.8,20.5,16.5,65,49,30,24.41,24.21,29,12,36,0.00
2013-11-27,47.5,40.0,29.8,21.4,18.5,16.0,65,42,31,24.23,24.17,33,11,37,0.00
2013-11-28,48.2,35.5,25.7,22.8,17.5,6.6,81,52,19,24.20,24.13,40,21,43,0.00
2013-11-29,44.8,39.8,34.2,27.7,17.5,13.3,77,41,30,24.22,24.15,44,24,46,0.00
2013-11-30,39.2,35.6,33.4,28.9,27.1,24.8,82,71,58,24.22,24.15,47,28,47,0.00
2013-12-1,38.5,35.2,33.3,33.3,28.6,25.5,97,77,65,24.18,23.81,53,25,53,0.00
2013-12-2,37.2,17.7,-3.3,33.4,15.1,-6.3,99,89,72,23.95,23.71,49,21,54,0.00
2013-12-3,-3.1,-6.7,-11.0,-6.0,-10.1,-15.0,87,85,82,24.12,23.94,38,26,40,0.00
2013-12-4,-6.3,-10.2,-14.3,-9.6,-14.1,-18.9,85,83,79,24.14,24.09,27,6,27,0.00
2013-12-5,6.8,-10.0,-20.2,4.3,-13.9,-25.4,89,82,76,24.18,24.06,0,0,0,0.00
2013-12-6,-16.1,-22.9,-27.4,-21.3,-28.4,-33.3,77,74,72,24.22,24.16,0,0,0,0.00
2013-12-7,-9.9,-18.6,-27.2,-14.3,-23.6,-33.2,81,77,72,24.17,23.93,0,0,0,0.00
2013-12-8,1.2,-6.5,-14.8,-1.5,-10.1,-19.1,88,84,76,24.09,23.91,0,0,0,0.00
2013-12-9,18.1,7.6,-4.0,10.9,1.6,-11.4,88,76,66,24.06,23.98,54,18,55,1.67
2013-12-10,18.5,13.5,7.5,14.0,10.3,5.7,96,87,71,24.22,23.94,61,27,63,2.46
2013-12-11,28.6,21.4,14.5,18.5,13.0,8.8,81,70,61,24.26,24.16,50,33,55,0.07
2013-12-12,37.2,32.2,25.9,23.7,18.7,16.2,73,57,42,24.26,24.03,66,28,72,2.79
2013-12-13,31.1,28.6,26.6,22.8,20.9,18.5,79,73,62,24.25,24.02,43,29,46,0.00
2013-12-14,37.9,33.0,27.9,27.5,24.1,19.6,80,70,48,24.25,24.07,66,44,74,19.29
2013-12-15,40.3,37.9,36.0,25.7,21.7,16.7,65,52,40,24.19,24.09,69,39,78,0.01
2013-12-16,38.3,35.2,33.6,25.0,21.8,18.5,65,58,45,24.32,24.13,59,34,60,0.21
2013-12-17,51.3,41.7,33.4,21.4,14.2,4.5,61,34,15,24.31,23.99,55,21,55,0.00
2013-12-18,42.1,27.7,-5.1,25.7,14.3,-8.1,99,64,28,23.99,23.89,41,19,56,0.00
2013-12-19,11.1,-1.1,-9.8,1.9,-5.3,-13.5,86,82,65,24.11,23.92,11,3,11,0.00
2013-12-20,20.8,16.3,7.7,19.8,9.2,-1.5,99,74,62,23.93,23.65,39,20,40,0.00
2013-12-21,21.4,17.6,11.8,19.2,16.6,10.8,99,96,85,24.01,23.66,23,7,26,0.00
2013-12-22,29.3,13.4,2.7,25.9,9.7,0.3,99,85,65,24.20,23.99,26,8,30,0.00
2013-12-23,37.4,32.4,23.0,32.2,27.4,16.9,99,82,69,24.19,23.97,55,30,58,0.02
2013-12-24,28.4,25.0,23.2,25.5,18.1,13.3,99,75,63,24.36,24.01,49,31,53,0.05
2013-12-25,36.9,29.8,21.4,17.6,6.7,-12.3,67,42,12,24.36,24.18,52,26,59,0.19
2013-12-26,43.7,38.9,33.4,28.6,25.1,17.6,67,58,48,24.28,24.14,62,37,62,1.30
2013-12-27,48.2,43.0,38.1,25.7,17.9,9.3,50,37,24,24.26,23.97,61,31,61,0.04
2013-12-28,39.6,14.3,0.9,20.5,9.8,-1.8,96,84,36,24.33,24.01,52,15,62,0.22
2013-12-29,28.6,24.6,17.8,20.1,15.8,11.3,89,69,55,24.30,23.98,56,32,58,0.28
2013-12-30,37.6,31.4,23.9,28.9,22.3,19.8,86,69,54,24.19,24.00,47,25,50,0.00
2013-12-31,35.4,32.0,25.7,30.4,27.0,22.8,99,82,71,24.14,23.98,54,29,54,0.04
2014-1-1,31.6,26.3,21.6,23.4,19.3,15.6,99,76,55,24.33,24.13,33,16,36,0.00
2014-1-2,41.0,35.0,27.5,28.4,20.9,15.3,71,56,45,24.25,23.89,50,26,50,0.00